TIGER11 EGPH-OMDB

Flight info

Callsign TIGER11
Flight time N/A
Altitude 39000
Route TLA Y96 NATEB DCT LONAM DCT NOMKA DCT KILNU DCT DITIS DCT BEGLA DCT DEGET DCT TIXIP DCT KOMAN DCT ARTAT UP975 EZS UL614 OTKEP UM688 RATVO DCT SIDAD P975 SESRU DCT VUTEB
Aircraft B737/M-SDE2E3FGHIRWXY/LB1

Departure

Time 2026-05-05 19:12
Airport Edinburgh Airport (EGPH)

Arrival

Time N/A
Airport Dubai International Airport (OMDB)
Time Latitude Longitude Altitude Speed Heading
2026-05-05 18:51 55.94782 -3.36883 102 ft 0 kts 269°
2026-05-05 19:04 55.94782 -3.36875 102 ft 2 kts 269°
2026-05-05 19:04 55.94782 -3.36857 102 ft 2 kts 269°
2026-05-05 19:04 55.94783 -3.36831 101 ft 2 kts 269°
2026-05-05 19:05 55.94781 -3.36805 101 ft 2 kts 287°
2026-05-05 19:05 55.94776 -3.36780 100 ft 2 kts 302°
2026-05-05 19:05 55.94767 -3.36760 101 ft 2 kts 317°
2026-05-05 19:05 55.94764 -3.36755 101 ft 2 kts 321°
2026-05-05 19:06 55.94790 -3.36777 101 ft 3 kts 351°
2026-05-05 19:06 55.94799 -3.36777 101 ft 1 kts 360°
2026-05-05 19:06 55.94800 -3.36777 101 ft 0 kts 360°
2026-05-05 19:07 55.94801 -3.36777 101 ft 0 kts 360°
2026-05-05 19:08 55.94821 -3.36778 101 ft 8 kts
2026-05-05 19:08 55.94910 -3.36818 101 ft 18 kts 323°
2026-05-05 19:08 55.94868 -3.37067 101 ft 19 kts 239°
2026-05-05 19:08 55.94812 -3.37229 101 ft 25 kts 239°
2026-05-05 19:09 55.94682 -3.37612 102 ft 27 kts 240°
2026-05-05 19:09 55.94587 -3.37890 104 ft 25 kts 239°
2026-05-05 19:09 55.94496 -3.38163 107 ft 24 kts 239°
2026-05-05 19:09 55.94411 -3.38415 111 ft 22 kts 239°
2026-05-05 19:10 55.94360 -3.38564 114 ft 19 kts 239°
2026-05-05 19:10 55.94282 -3.38795 117 ft 10 kts 243°
2026-05-05 19:10 55.94304 -3.38878 117 ft 7 kts 332°
2026-05-05 19:10 55.94320 -3.38894 117 ft 0 kts 329°
2026-05-05 19:11 55.94325 -3.38900 117 ft 4 kts 330°
2026-05-05 19:11 55.94422 -3.38942 115 ft 14 kts 46°
2026-05-05 19:11 55.94446 -3.38879 115 ft 0 kts 60°
2026-05-05 19:12 55.94458 -3.38842 114 ft 14 kts 59°
2026-05-05 19:12 55.94795 -3.37845 110 ft 124 kts 59°
2026-05-05 19:12 55.95119 -3.36939 510 ft 130 kts 57°
2026-05-05 19:12 55.95709 -3.35559 1550 ft 122 kts 57°
2026-05-05 19:13 55.96090 -3.34630 1686 ft 153 kts 57°
2026-05-05 19:13 55.96797 -3.33015 2271 ft 176 kts 49°
2026-05-05 19:13 55.97762 -3.31554 2883 ft 200 kts 41°
2026-05-05 19:13 55.99337 -3.29208 3620 ft 242 kts 42°
2026-05-05 19:14 56.00205 -3.27890 4195 ft 254 kts 41°
2026-05-05 19:14 56.01563 -3.25795 5266 ft 263 kts 41°
2026-05-05 19:14 56.02900 -3.23566 6258 ft 269 kts 44°
2026-05-05 19:14 56.04164 -3.21130 6460 ft 268 kts 50°
2026-05-05 19:15 56.05220 -3.18457 6621 ft 263 kts 61°
2026-05-05 19:15 56.05772 -3.15271 6684 ft 274 kts 84°
2026-05-05 19:15 56.05160 -3.10918 6226 ft 277 kts 121°
2026-05-05 19:15 56.03899 -3.08449 6172 ft 266 kts 140°
2026-05-05 19:16 56.02885 -3.07076 6364 ft 286 kts 141°
2026-05-05 19:16 56.01265 -3.04893 7413 ft 294 kts 142°
2026-05-05 19:16 55.99145 -3.02086 9165 ft 289 kts 143°
2026-05-05 19:16 55.98068 -3.00690 9820 ft 293 kts 144°
2026-05-05 19:17 55.96391 -2.98687 10771 ft 299 kts 157°
2026-05-05 19:17 55.94290 -2.98070 11352 ft 312 kts 190°
2026-05-05 19:17 55.92332 -2.99263 12557 ft 302 kts 213°
2026-05-05 19:17 55.90026 -3.02169 13703 ft 311 kts 220°
2026-05-05 19:18 55.88808 -3.03501 14436 ft 315 kts 208°
2026-05-05 19:18 55.86628 -3.04273 15277 ft 332 kts 180°
2026-05-05 19:18 55.83699 -3.02527 16526 ft 344 kts 156°
2026-05-05 19:18 55.82272 -3.01320 17119 ft 345 kts 160°
2026-05-05 19:19 55.80020 -2.99827 17748 ft 360 kts 164°
2026-05-05 19:19 55.77579 -2.98236 18035 ft 386 kts 162°
2026-05-05 19:19 55.75019 -2.96433 18250 ft 410 kts 161°
2026-05-05 19:19 55.71491 -2.93897 19014 ft 427 kts 161°
2026-05-05 19:20 55.70712 -2.93339 19239 ft 429 kts 161°
2026-05-05 19:20 55.67970 -2.91373 20022 ft 435 kts 161°
2026-05-05 19:20 55.64183 -2.88655 21095 ft 442 kts 161°
2026-05-05 19:20 55.61353 -2.86624 21869 ft 447 kts 161°
2026-05-05 19:21 55.59439 -2.85251 22388 ft 450 kts 161°
2026-05-05 19:21 55.56515 -2.83157 23147 ft 454 kts 161°
2026-05-05 19:21 55.53614 -2.81082 23867 ft 458 kts 160°
2026-05-05 19:21 55.49680 -2.78274 24772 ft 464 kts 160°
2026-05-05 19:22 55.47687 -2.76853 25218 ft 467 kts 161°
2026-05-05 19:22 55.44661 -2.74697 25852 ft 471 kts 161°
2026-05-05 19:22 55.41632 -2.72382 26480 ft 477 kts 156°
2026-05-05 19:22 55.37862 -2.68245 27223 ft 488 kts 144°
2026-05-05 19:23 55.36180 -2.65595 27659 ft 491 kts 136°
2026-05-05 19:23 55.34029 -2.61058 28595 ft 488 kts 128°
2026-05-05 19:23 55.32191 -2.56050 29326 ft 489 kts 122°
2026-05-05 19:23 55.29996 -2.49139 30258 ft 488 kts 121°
2026-05-05 19:24 55.28896 -2.45711 30693 ft 487 kts 121°
2026-05-05 19:24 55.27210 -2.40568 31339 ft 486 kts 122°
2026-05-05 19:24 55.25543 -2.35504 31944 ft 485 kts 122°
2026-05-05 19:24 55.23846 -2.30327 32560 ft 484 kts 122°
2026-05-05 19:25 55.22196 -2.25283 33117 ft 483 kts 122°
2026-05-05 19:25 55.20514 -2.20153 33664 ft 483 kts 122°
2026-05-05 19:25 55.18860 -2.15119 34188 ft 482 kts 122°
2026-05-05 19:25 55.16622 -2.08321 34890 ft 480 kts 122°
2026-05-05 19:26 55.15522 -2.04984 35225 ft 479 kts 122°
2026-05-05 19:26 55.13879 -2.00010 35724 ft 478 kts 122°
2026-05-05 19:26 55.12211 -1.94968 36197 ft 477 kts 122°
2026-05-05 19:26 55.10548 -1.89951 36631 ft 476 kts 122°
2026-05-05 19:27 55.08361 -1.83373 37173 ft 475 kts 122°
2026-05-05 19:27 55.07261 -1.80066 37432 ft 475 kts 122°
2026-05-05 19:27 55.05074 -1.73331 37929 ft 475 kts 120°
2026-05-05 19:27 55.04113 -1.69878 38161 ft 476 kts 115°
2026-05-05 19:28 55.02960 -1.64519 38498 ft 477 kts 110°
2026-05-05 19:28 55.01919 -1.59009 38827 ft 477 kts 109°
2026-05-05 19:28 55.00894 -1.53568 39097 ft 478 kts 109°
2026-05-05 19:28 54.99856 -1.48042 39100 ft 481 kts 109°
2026-05-05 19:29 54.97798 -1.37073 39101 ft 476 kts 109°
2026-05-05 19:29 54.95419 -1.24426 39101 ft 474 kts 110°
2026-05-05 19:30 54.93361 -1.13541 39095 ft 475 kts 110°
2026-05-05 19:30 54.91632 -1.04429 39085 ft 476 kts 110°
2026-05-05 19:31 54.89560 -0.93563 39074 ft 475 kts 110°
2026-05-05 19:31 54.87138 -0.80939 39074 ft 475 kts 110°
2026-05-05 19:32 54.85387 -0.71863 39074 ft 475 kts 110°
2026-05-05 19:32 54.83287 -0.61032 39074 ft 475 kts 110°
2026-05-05 19:33 54.81176 -0.50205 39074 ft 475 kts 110°
2026-05-05 19:33 54.79058 -0.39403 39074 ft 475 kts 110°
2026-05-05 19:34 54.76931 -0.28614 39074 ft 475 kts 111°
2026-05-05 19:35 54.73716 -0.12415 39063 ft 475 kts 111°
2026-05-05 19:35 54.71566 -0.01661 39050 ft 475 kts 111°
2026-05-05 19:36 54.69411 0.09063 39047 ft 473 kts 111°
2026-05-05 19:36 54.67251 0.19747 39047 ft 472 kts 111°
2026-05-05 19:37 54.65081 0.30429 39047 ft 473 kts 111°
2026-05-05 19:37 54.62900 0.41100 39047 ft 473 kts 111°
2026-05-05 19:38 54.60710 0.51765 39047 ft 474 kts 111°
2026-05-05 19:38 54.58495 0.62489 39047 ft 474 kts 111°
2026-05-05 19:39 54.56285 0.73138 39047 ft 473 kts 112°
2026-05-05 19:39 54.54065 0.83771 39047 ft 473 kts 112°
2026-05-05 19:40 54.51838 0.94386 39047 ft 473 kts 112°
2026-05-05 19:40 54.49602 1.04987 39030 ft 473 kts 112°
2026-05-05 19:41 54.47355 1.15585 39006 ft 473 kts 112°
2026-05-05 19:41 54.45103 1.26148 38993 ft 472 kts 112°
2026-05-05 19:42 54.42833 1.36747 38993 ft 472 kts 112°
2026-05-05 19:42 54.40562 1.47289 38993 ft 472 kts 112°
2026-05-05 19:43 54.38289 1.57791 38993 ft 471 kts 112°
2026-05-05 19:43 54.36007 1.68277 38993 ft 470 kts 113°
2026-05-05 19:44 54.33718 1.78743 38993 ft 470 kts 113°
2026-05-05 19:44 54.31419 1.89201 38993 ft 471 kts 113°
2026-05-05 19:45 54.29115 1.99626 38986 ft 470 kts 113°
2026-05-05 19:45 54.26801 2.10053 38974 ft 470 kts 113°
2026-05-05 19:46 54.24475 2.20473 38966 ft 470 kts 113°
2026-05-05 19:46 54.22136 2.30904 38966 ft 471 kts 113°
2026-05-05 19:47 54.19789 2.41313 38966 ft 471 kts 113°
2026-05-05 19:47 54.17433 2.51712 38966 ft 471 kts 113°
2026-05-05 19:48 54.15065 2.62116 38966 ft 472 kts 113°
2026-05-05 19:48 54.12676 2.72565 38966 ft 472 kts 114°
2026-05-05 19:49 54.10288 2.82947 38966 ft 472 kts 114°
2026-05-05 19:49 54.07890 2.93324 38966 ft 472 kts 114°
2026-05-05 19:50 54.05091 3.05379 38966 ft 473 kts 114°
2026-05-05 19:50 54.03068 3.14045 38966 ft 473 kts 114°
2026-05-05 19:51 54.00648 3.24370 38966 ft 472 kts 114°
2026-05-05 19:51 53.98225 3.34661 38966 ft 468 kts 114°
2026-05-05 19:52 53.95808 3.44873 38966 ft 467 kts 114°
2026-05-05 19:52 53.93375 3.55096 38966 ft 470 kts 114°
2026-05-05 19:53 53.90930 3.65333 38966 ft 470 kts 115°
2026-05-05 19:53 53.88475 3.75555 38966 ft 469 kts 115°
2026-05-05 19:54 53.86012 3.85769 38966 ft 470 kts 115°
2026-05-05 19:54 53.83490 3.95929 38977 ft 469 kts 118°
2026-05-05 19:55 53.80388 4.05541 38988 ft 467 kts 122°
2026-05-05 19:55 53.77259 4.15210 38993 ft 468 kts 121°
2026-05-05 19:56 53.74168 4.24820 38993 ft 467 kts 121°
2026-05-05 19:56 53.71061 4.34414 38993 ft 467 kts 121°
2026-05-05 19:57 53.67955 4.43983 38993 ft 467 kts 121°
2026-05-05 19:57 53.64841 4.53542 38993 ft 466 kts 121°
2026-05-05 19:58 53.61725 4.63069 38993 ft 467 kts 121°
2026-05-05 19:58 53.58599 4.72594 38993 ft 466 kts 122°
2026-05-05 19:59 53.55463 4.82107 38991 ft 466 kts 122°
2026-05-05 19:59 53.52325 4.91593 38970 ft 466 kts 122°
2026-05-05 20:00 53.49176 5.01076 38948 ft 466 kts 122°
2026-05-05 20:00 53.46015 5.10557 38939 ft 466 kts 122°
2026-05-05 20:01 53.42847 5.20023 38939 ft 467 kts 122°
2026-05-05 20:01 53.39671 5.29476 38939 ft 467 kts 122°
2026-05-05 20:02 53.36480 5.38936 38939 ft 467 kts 122°
2026-05-05 20:02 53.33287 5.48369 38939 ft 468 kts 122°
2026-05-05 20:03 53.30077 5.57815 38939 ft 468 kts 122°
2026-05-05 20:03 53.26862 5.67237 38939 ft 467 kts 123°
2026-05-05 20:04 53.23651 5.76610 38939 ft 467 kts 123°
2026-05-05 20:04 53.20432 5.85973 38939 ft 467 kts 123°
2026-05-05 20:05 53.17191 5.95364 38939 ft 467 kts 123°
2026-05-05 20:05 53.13970 6.04663 38939 ft 467 kts 123°
2026-05-05 20:06 53.06968 6.24757 38939 ft 466 kts 123°
2026-05-05 20:07 53.03707 6.34061 38939 ft 465 kts 123°
2026-05-05 20:07 53.00458 6.43294 38939 ft 465 kts 123°
2026-05-05 20:08 52.94340 6.60589 38939 ft 465 kts 123°
2026-05-05 20:09 52.91034 6.69888 38939 ft 464 kts 124°
2026-05-05 20:09 52.87758 6.79063 38939 ft 464 kts 124°
2026-05-05 20:10 52.84470 6.88239 38939 ft 465 kts 124°
2026-05-05 20:10 52.81196 6.97344 38939 ft 464 kts 124°
2026-05-05 20:11 52.77895 7.06490 38932 ft 464 kts 124°
2026-05-05 20:11 52.74591 7.15611 38916 ft 464 kts 124°
2026-05-05 20:12 52.71283 7.24711 38897 ft 464 kts 124°
2026-05-05 20:12 52.67969 7.33793 38880 ft 463 kts 124°
2026-05-05 20:13 52.64661 7.42828 38863 ft 462 kts 124°
2026-05-05 20:13 52.61346 7.51847 38858 ft 462 kts 124°
2026-05-05 20:14 52.58025 7.60852 38858 ft 461 kts 124°
2026-05-05 20:14 52.54691 7.69860 38858 ft 461 kts 125°
2026-05-05 20:15 52.51371 7.78798 38858 ft 460 kts 125°
2026-05-05 20:15 52.48048 7.87712 38858 ft 460 kts 125°
2026-05-05 20:16 52.44697 7.96668 38858 ft 460 kts 125°
2026-05-05 20:16 52.41367 8.05539 38858 ft 459 kts 125°
2026-05-05 20:17 52.38044 8.14359 38858 ft 459 kts 125°
2026-05-05 20:17 52.34689 8.23233 38858 ft 459 kts 125°
2026-05-05 20:18 52.31311 8.32136 38857 ft 460 kts 125°
2026-05-05 20:18 52.27965 8.40924 38852 ft 460 kts 125°
2026-05-05 20:19 52.24563 8.49827 38846 ft 461 kts 125°
2026-05-05 20:19 52.21173 8.58670 38840 ft 461 kts 125°
2026-05-05 20:20 52.18388 8.65911 38835 ft 461 kts 126°
2026-05-05 20:20 52.15261 8.74018 38831 ft 461 kts 126°
2026-05-05 20:21 52.11882 8.82745 38831 ft 461 kts 126°
2026-05-05 20:21 52.08494 8.91469 38833 ft 461 kts 126°
2026-05-05 20:22 52.05072 9.00251 38843 ft 461 kts 126°
2026-05-05 20:22 52.01653 9.08992 38853 ft 462 kts 126°
2026-05-05 20:23 51.98192 9.17813 38857 ft 459 kts 126°
2026-05-05 20:23 51.94820 9.26379 38858 ft 456 kts 126°
2026-05-05 20:24 51.91460 9.34879 38858 ft 458 kts 126°
2026-05-05 20:24 51.88050 9.43480 38857 ft 460 kts 126°
2026-05-05 20:25 51.84676 9.51963 38857 ft 459 kts 126°
2026-05-05 20:25 51.81213 9.60641 38858 ft 459 kts 126°
2026-05-05 20:26 51.77793 9.69181 38858 ft 458 kts 127°
2026-05-05 20:26 51.74472 9.77450 38858 ft 458 kts 127°
2026-05-05 20:27 51.71061 9.85912 38858 ft 459 kts 127°
2026-05-05 20:27 51.67561 9.94566 38858 ft 459 kts 127°
2026-05-05 20:28 51.64093 10.03114 38848 ft 459 kts 127°
2026-05-05 20:28 51.60632 10.11617 38834 ft 458 kts 127°
2026-05-05 20:29 51.57133 10.20177 38823 ft 459 kts 127°
2026-05-05 20:29 51.53682 10.28599 38811 ft 459 kts 127°
2026-05-05 20:30 51.50210 10.37044 38804 ft 459 kts 127°
2026-05-05 20:30 51.46699 10.45556 38804 ft 459 kts 127°
2026-05-05 20:31 51.43209 10.54107 38804 ft 460 kts 126°
2026-05-05 20:31 51.39868 10.62885 38804 ft 460 kts 125°
2026-05-05 20:32 51.36509 10.71596 38804 ft 460 kts 126°
2026-05-05 20:32 51.33157 10.80235 38804 ft 460 kts 126°
2026-05-05 20:33 51.29784 10.88903 38804 ft 460 kts 126°
2026-05-05 20:33 51.26384 10.97605 38804 ft 461 kts 126°
2026-05-05 20:34 51.23009 11.06215 38804 ft 461 kts 126°
2026-05-05 20:34 51.19603 11.14874 38804 ft 462 kts 126°
2026-05-05 20:35 51.16189 11.23522 38804 ft 462 kts 126°
2026-05-05 20:35 51.12771 11.32149 38804 ft 462 kts 126°
2026-05-05 20:36 51.09328 11.40813 38804 ft 462 kts 126°
2026-05-05 20:36 51.05907 11.49392 38804 ft 463 kts 126°
2026-05-05 20:37 51.02452 11.58026 38804 ft 463 kts 126°
2026-05-05 20:37 50.99012 11.66597 38803 ft 463 kts 127°
2026-05-05 20:38 50.95558 11.75172 38804 ft 462 kts 127°
2026-05-05 20:38 50.92079 11.83778 38809 ft 462 kts 127°
2026-05-05 20:39 50.88615 11.92321 38819 ft 462 kts 127°
2026-05-05 20:39 50.85162 12.00810 38830 ft 462 kts 127°
2026-05-05 20:40 50.81665 12.09375 38831 ft 462 kts 127°
2026-05-05 20:40 50.78193 12.17854 38831 ft 462 kts 127°
2026-05-05 20:41 50.74754 12.26226 38831 ft 461 kts 127°
2026-05-05 20:41 50.71261 12.34701 38831 ft 461 kts 127°
2026-05-05 20:42 50.67776 12.43130 38831 ft 460 kts 127°
2026-05-05 20:42 50.64288 12.51538 38831 ft 460 kts 127°
2026-05-05 20:43 50.60773 12.59982 38831 ft 460 kts 127°
2026-05-05 20:43 50.57290 12.68327 38831 ft 459 kts 127°
2026-05-05 20:44 50.53772 12.76726 38831 ft 458 kts 127°
2026-05-05 20:44 50.50274 12.85043 38831 ft 457 kts 127°
2026-05-05 20:45 50.44100 12.96175 38831 ft 450 kts 141°
2026-05-05 20:45 50.39529 13.02841 38824 ft 450 kts 139°
2026-05-05 20:46 50.35045 13.09491 38817 ft 449 kts 140°
2026-05-05 20:46 50.30477 13.16146 38809 ft 448 kts 139°
2026-05-05 20:47 50.25930 13.22749 38804 ft 447 kts 139°
2026-05-05 20:47 50.21386 13.29314 38804 ft 446 kts 139°
2026-05-05 20:48 50.16846 13.35850 38804 ft 445 kts 139°
2026-05-05 20:48 50.12310 13.42358 38804 ft 444 kts 139°
2026-05-05 20:49 50.07764 13.48860 38804 ft 443 kts 138°
2026-05-05 20:49 50.03254 13.55293 38804 ft 442 kts 138°
2026-05-05 20:50 49.98719 13.61741 38804 ft 443 kts 138°
2026-05-05 20:50 49.94199 13.68152 38803 ft 442 kts 139°
2026-05-05 20:51 49.89650 13.74586 38804 ft 442 kts 139°
2026-05-05 20:51 49.85126 13.80967 38804 ft 442 kts 139°
2026-05-05 20:52 49.80588 13.87353 38804 ft 441 kts 139°
2026-05-05 20:52 49.76075 13.93686 38802 ft 441 kts 139°
2026-05-05 20:53 49.71533 14.00043 38788 ft 442 kts 139°
2026-05-05 20:53 49.66973 14.06407 38773 ft 443 kts 139°
2026-05-05 20:54 49.62418 14.12748 38759 ft 444 kts 139°
2026-05-05 20:54 49.57849 14.19092 38750 ft 445 kts 139°
2026-05-05 20:55 49.53218 14.25504 38750 ft 447 kts 139°
2026-05-05 20:55 49.48604 14.31876 38750 ft 449 kts 139°
2026-05-05 20:56 49.43959 14.38275 38750 ft 451 kts 139°
2026-05-05 20:56 49.39274 14.44712 38750 ft 452 kts 139°
2026-05-05 20:57 49.34604 14.51110 38750 ft 455 kts 139°
2026-05-05 20:57 49.29921 14.57509 38750 ft 456 kts 140°
2026-05-05 20:58 49.25169 14.63984 38757 ft 458 kts 140°
2026-05-05 20:58 49.20403 14.70462 38773 ft 459 kts 141°
2026-05-05 20:59 49.15640 14.76918 38789 ft 460 kts 141°
2026-05-05 20:59 49.10823 14.83429 38804 ft 462 kts 141°
2026-05-05 21:00 49.06068 14.89839 38803 ft 463 kts 141°
2026-05-05 21:00 49.01292 14.96261 38795 ft 464 kts 141°
2026-05-05 21:01 48.96447 15.02757 38788 ft 464 kts 141°
2026-05-05 21:01 48.91621 15.09259 38781 ft 466 kts 139°
2026-05-05 21:02 48.87339 15.16629 38777 ft 470 kts 130°
2026-05-05 21:02 48.83305 15.24436 38777 ft 470 kts 131°
2026-05-05 21:03 48.79237 15.32184 38777 ft 471 kts 130°
2026-05-05 21:03 48.75185 15.39953 38777 ft 472 kts 130°
2026-05-05 21:04 48.71117 15.47742 38777 ft 472 kts 130°
2026-05-05 21:04 48.67056 15.55507 38777 ft 473 kts 130°
2026-05-05 21:05 48.62985 15.63274 38777 ft 473 kts 130°
2026-05-05 21:05 48.58918 15.71016 38777 ft 473 kts 131°
2026-05-05 21:06 48.54815 15.78802 38777 ft 473 kts 131°
2026-05-05 21:06 48.50716 15.86560 38777 ft 474 kts 131°
2026-05-05 21:07 48.46632 15.94269 38777 ft 474 kts 131°
2026-05-05 21:07 48.42508 16.02031 38777 ft 474 kts 131°
2026-05-05 21:08 48.38376 16.09784 38777 ft 475 kts 131°
2026-05-05 21:08 48.34234 16.17535 38777 ft 475 kts 131°
2026-05-05 21:09 48.30110 16.25230 38777 ft 475 kts 131°
2026-05-05 21:09 48.25979 16.32915 38777 ft 474 kts 131°
2026-05-05 21:10 48.21825 16.40622 38777 ft 474 kts 131°
2026-05-05 21:10 48.17674 16.48302 38777 ft 474 kts 131°
2026-05-05 21:11 48.13529 16.55947 38777 ft 474 kts 131°
2026-05-05 21:11 48.09383 16.63571 38777 ft 474 kts 131°
2026-05-05 21:12 48.05230 16.71189 38777 ft 473 kts 132°
2026-05-05 21:12 48.01074 16.78789 38777 ft 473 kts 131°
2026-05-05 21:13 47.96935 16.86337 38788 ft 473 kts 131°
2026-05-05 21:13 47.92771 16.93910 38814 ft 473 kts 131°
2026-05-05 21:14 47.88586 17.01501 38849 ft 472 kts 131°
2026-05-05 21:14 47.84508 17.09169 38879 ft 473 kts 127°
2026-05-05 21:15 47.81305 17.17677 38885 ft 475 kts 115°
2026-05-05 21:15 47.78628 17.26616 38885 ft 474 kts 115°
2026-05-05 21:16 47.75938 17.35544 38885 ft 474 kts 115°
2026-05-05 21:16 47.73253 17.44462 38885 ft 473 kts 115°
2026-05-05 21:17 47.70575 17.53348 38885 ft 472 kts 115°
2026-05-05 21:17 47.67894 17.62220 38885 ft 472 kts 115°
2026-05-05 21:18 47.65204 17.71095 38885 ft 472 kts 115°
2026-05-05 21:18 47.62520 17.79925 38885 ft 471 kts 115°
2026-05-05 21:19 47.59826 17.88755 38885 ft 472 kts 115°
2026-05-05 21:19 47.57113 17.97618 38885 ft 472 kts 115°
2026-05-05 21:20 47.54407 18.06424 38885 ft 471 kts 115°
2026-05-05 21:20 47.51701 18.15204 38885 ft 471 kts 115°
2026-05-05 21:21 47.48982 18.23993 38894 ft 471 kts 115°
2026-05-05 21:21 47.46250 18.32792 38903 ft 473 kts 115°
2026-05-05 21:22 47.43513 18.41575 38912 ft 473 kts 115°
2026-05-05 21:22 47.40756 18.50394 38921 ft 472 kts 115°
2026-05-05 21:23 47.38001 18.59174 38931 ft 473 kts 115°
2026-05-05 21:23 47.35241 18.67943 38939 ft 473 kts 116°
2026-05-05 21:24 47.32490 18.76649 38939 ft 473 kts 116°
2026-05-05 21:24 47.29705 18.85434 38939 ft 473 kts 116°
2026-05-05 21:25 47.26914 18.94208 38939 ft 473 kts 116°
2026-05-05 21:25 47.24126 19.02942 38945 ft 473 kts 116°
2026-05-05 21:26 47.21346 19.11622 38955 ft 473 kts 116°
2026-05-05 21:26 47.18533 19.20375 38965 ft 474 kts 116°
2026-05-05 21:27 47.15715 19.29110 38966 ft 475 kts 116°
2026-05-05 21:27 47.12890 19.37838 38966 ft 474 kts 116°
2026-05-05 21:28 47.10056 19.46565 38966 ft 474 kts 116°
2026-05-05 21:28 47.07209 19.55303 38966 ft 474 kts 116°
2026-05-05 21:29 47.04374 19.63975 38966 ft 475 kts 116°
2026-05-05 21:29 47.01513 19.72695 38966 ft 475 kts 116°
2026-05-05 21:30 46.98651 19.81390 38966 ft 475 kts 116°
2026-05-05 21:30 46.95800 19.90021 38966 ft 475 kts 116°
2026-05-05 21:31 46.92915 19.98726 38959 ft 476 kts 116°
2026-05-05 21:31 46.90029 20.07406 38950 ft 477 kts 116°
2026-05-05 21:32 46.87123 20.16117 38941 ft 476 kts 116°
2026-05-05 21:32 46.84222 20.24782 38944 ft 476 kts 116°
2026-05-05 21:33 46.81312 20.33444 38949 ft 476 kts 116°
2026-05-05 21:33 46.78385 20.42131 38954 ft 476 kts 116°
2026-05-05 21:34 46.75477 20.50730 38959 ft 478 kts 116°
2026-05-05 21:34 46.72521 20.59443 38964 ft 478 kts 116°
2026-05-05 21:35 46.69576 20.68096 38966 ft 477 kts 117°
2026-05-05 21:35 46.66625 20.76739 38966 ft 477 kts 117°
2026-05-05 21:36 46.63669 20.85367 38966 ft 477 kts 117°
2026-05-05 21:36 46.60724 20.93933 38960 ft 478 kts 116°
2026-05-05 21:37 46.57752 21.02550 38951 ft 478 kts 116°
2026-05-05 21:37 46.54777 21.11147 38941 ft 477 kts 116°
2026-05-05 21:38 46.51785 21.19767 38939 ft 477 kts 116°
2026-05-05 21:38 46.48708 21.28280 38938 ft 477 kts 121°
2026-05-05 21:39 46.44969 21.36227 38939 ft 477 kts 124°
2026-05-05 21:39 46.41244 21.44167 38939 ft 478 kts 123°
2026-05-05 21:40 46.37556 21.52067 38939 ft 477 kts 124°
2026-05-05 21:40 46.33820 21.60023 38939 ft 477 kts 124°
2026-05-05 21:41 46.30089 21.67957 38939 ft 478 kts 124°
2026-05-05 21:41 46.26348 21.75888 38939 ft 479 kts 124°
2026-05-05 21:42 46.22600 21.83812 38940 ft 479 kts 124°
2026-05-05 21:42 46.18866 21.91687 38946 ft 478 kts 124°
2026-05-05 21:43 46.15112 21.99579 38953 ft 478 kts 124°
2026-05-05 21:43 46.11344 22.07479 38959 ft 478 kts 124°
2026-05-05 21:44 46.07582 22.15346 38965 ft 479 kts 124°
2026-05-05 21:44 46.03808 22.23214 38966 ft 479 kts 124°
2026-05-05 21:45 46.00022 22.31087 38966 ft 478 kts 124°
2026-05-05 21:45 45.96246 22.38916 38966 ft 478 kts 124°
2026-05-05 21:46 45.92462 22.46740 38966 ft 479 kts 124°
2026-05-05 21:46 45.88664 22.54571 38966 ft 480 kts 124°
2026-05-05 21:47 45.84860 22.62391 38966 ft 480 kts 124°
2026-05-05 21:47 45.81032 22.70238 38966 ft 480 kts 125°
2026-05-05 21:48 45.77194 22.78085 38966 ft 480 kts 124°
2026-05-05 21:48 45.73385 22.85850 38976 ft 480 kts 124°
2026-05-05 21:49 45.69550 22.93648 38994 ft 481 kts 124°
2026-05-05 21:49 45.65696 23.01464 39012 ft 480 kts 124°
2026-05-05 21:50 45.61853 23.09234 39020 ft 480 kts 124°
2026-05-05 21:50 45.58007 23.16988 39017 ft 480 kts 124°
2026-05-05 21:51 45.54153 23.24740 39011 ft 480 kts 124°
2026-05-05 21:51 45.50291 23.32486 39004 ft 481 kts 124°
2026-05-05 21:52 45.44489 23.44081 38995 ft 480 kts 124°
2026-05-05 21:53 45.40640 23.51750 38993 ft 480 kts 124°
2026-05-05 21:53 45.36755 23.59468 38993 ft 480 kts 124°
2026-05-05 21:54 45.32875 23.67154 38993 ft 480 kts 125°
2026-05-05 21:54 45.28981 23.74849 38993 ft 480 kts 124°
2026-05-05 21:55 45.25094 23.82507 38993 ft 480 kts 124°
2026-05-05 21:55 45.21195 23.90168 38993 ft 481 kts 124°
2026-05-05 21:56 45.17725 23.96971 38993 ft 481 kts 124°
2026-05-05 21:56 45.14218 24.03828 38993 ft 480 kts 124°
2026-05-05 21:57 45.10311 24.11449 38995 ft 479 kts 124°
2026-05-05 21:57 45.06401 24.19057 39001 ft 479 kts 124°
2026-05-05 21:58 45.02486 24.26653 39008 ft 480 kts 124°
2026-05-05 21:58 44.98563 24.34242 39015 ft 481 kts 124°
2026-05-05 21:59 44.94629 24.41837 39020 ft 481 kts 124°
2026-05-05 21:59 44.90666 24.49463 39020 ft 480 kts 124°
2026-05-05 22:00 44.86742 24.56995 39020 ft 480 kts 124°
2026-05-05 22:00 44.82777 24.64587 39020 ft 480 kts 124°
2026-05-05 22:01 44.78823 24.72136 39020 ft 480 kts 125°
2026-05-05 22:01 44.74863 24.79677 39020 ft 480 kts 125°
2026-05-05 22:02 44.70882 24.87240 39020 ft 480 kts 125°
2026-05-05 22:02 44.66915 24.94755 39020 ft 480 kts 125°
2026-05-05 22:03 44.62937 25.02271 39020 ft 480 kts 125°
2026-05-05 22:03 44.58967 25.09752 39020 ft 479 kts 125°
2026-05-05 22:04 44.54992 25.17224 39020 ft 479 kts 125°
2026-05-05 22:04 44.50997 25.24714 39020 ft 479 kts 125°
2026-05-05 22:05 44.47016 25.32158 39020 ft 479 kts 125°
2026-05-05 22:05 44.43035 25.39582 39020 ft 478 kts 124°
2026-05-05 22:06 44.39039 25.47017 39020 ft 478 kts 124°
2026-05-05 22:06 44.35069 25.54384 39020 ft 478 kts 124°
2026-05-05 22:07 44.31072 25.61783 39020 ft 478 kts 124°
2026-05-05 22:07 44.27084 25.69143 39020 ft 478 kts 125°
2026-05-05 22:08 44.23087 25.76503 39020 ft 478 kts 125°
2026-05-05 22:08 44.19060 25.83900 39020 ft 478 kts 125°
2026-05-05 22:09 44.15059 25.91229 39020 ft 477 kts 125°
2026-05-05 22:09 44.11047 25.98561 39020 ft 477 kts 125°
2026-05-05 22:10 44.07028 26.05887 39020 ft 477 kts 125°
2026-05-05 22:10 44.02996 26.13217 39020 ft 477 kts 125°
2026-05-05 22:11 43.98968 26.20524 39020 ft 477 kts 125°
2026-05-05 22:11 43.95332 26.28118 39020 ft 475 kts 118°
2026-05-05 22:12 43.91902 26.35950 39020 ft 476 kts 119°
2026-05-05 22:12 43.88403 26.43705 39020 ft 476 kts 120°
2026-05-05 22:13 43.84898 26.51479 39020 ft 476 kts 119°
2026-05-05 22:13 43.81392 26.59221 39020 ft 476 kts 120°
2026-05-05 22:14 43.77880 26.66948 39020 ft 475 kts 120°
2026-05-05 22:14 43.74365 26.74666 39020 ft 476 kts 120°
2026-05-05 22:15 43.70840 26.82381 39020 ft 476 kts 120°
2026-05-05 22:15 43.67312 26.90082 39022 ft 475 kts 120°
2026-05-05 22:16 43.63787 26.97756 39039 ft 475 kts 120°
2026-05-05 22:16 43.60254 27.05425 39057 ft 475 kts 120°
2026-05-05 22:17 43.56716 27.13087 39073 ft 475 kts 120°
2026-05-05 22:17 43.53176 27.20732 39074 ft 474 kts 120°
2026-05-05 22:18 43.49636 27.28356 39074 ft 474 kts 120°
2026-05-05 22:18 43.46091 27.35972 39074 ft 474 kts 120°
2026-05-05 22:19 43.42542 27.43576 39074 ft 474 kts 120°
2026-05-05 22:19 43.38990 27.51168 39074 ft 474 kts 120°
2026-05-05 22:20 43.35432 27.58754 39074 ft 474 kts 120°
2026-05-05 22:20 43.31863 27.66343 39074 ft 474 kts 121°
2026-05-05 22:21 43.28270 27.73962 39074 ft 474 kts 121°
2026-05-05 22:21 43.24692 27.81529 39074 ft 474 kts 121°
2026-05-05 22:22 43.21113 27.89080 39074 ft 474 kts 121°
2026-05-05 22:22 43.17525 27.96631 39074 ft 475 kts 121°
2026-05-05 22:23 43.13930 28.04176 39074 ft 474 kts 121°
2026-05-05 22:23 43.10342 28.11688 39074 ft 473 kts 121°
2026-05-05 22:24 43.06745 28.19200 39074 ft 474 kts 121°
2026-05-05 22:24 43.03136 28.26718 39074 ft 475 kts 121°
2026-05-05 22:25 42.99521 28.34228 39074 ft 475 kts 121°
2026-05-05 22:25 42.95905 28.41723 39074 ft 474 kts 121°
2026-05-05 22:26 42.92284 28.49207 39074 ft 474 kts 121°
2026-05-05 22:26 42.88658 28.56685 39074 ft 475 kts 121°
2026-05-05 22:27 42.85019 28.64167 39074 ft 476 kts 121°
2026-05-05 22:27 42.81344 28.71706 39074 ft 476 kts 122°
2026-05-05 22:28 42.77699 28.79167 39074 ft 475 kts 122°
2026-05-05 22:28 42.74049 28.86617 39074 ft 475 kts 122°
2026-05-05 22:29 42.70392 28.94063 39074 ft 475 kts 122°
2026-05-05 22:29 42.66728 29.01504 39074 ft 475 kts 122°
2026-05-05 22:30 42.63061 29.08933 39074 ft 475 kts 122°
2026-05-05 22:30 42.59393 29.16346 39074 ft 475 kts 122°
2026-05-05 22:31 42.55715 29.23760 39074 ft 475 kts 122°
2026-05-05 22:31 42.52036 29.31159 39074 ft 475 kts 122°
2026-05-05 22:32 42.48350 29.38553 39074 ft 475 kts 122°
2026-05-05 22:32 42.44662 29.45933 39074 ft 475 kts 122°
2026-05-05 22:33 42.40966 29.53309 39074 ft 475 kts 122°
2026-05-05 22:33 42.37380 29.60807 39074 ft 474 kts 117°
2026-05-05 22:34 42.34805 29.68947 39074 ft 471 kts 106°
2026-05-05 22:34 42.32706 29.77301 39073 ft 471 kts 107°
2026-05-05 22:35 42.30539 29.85635 39064 ft 471 kts 107°
2026-05-05 22:35 42.28399 29.93969 39055 ft 471 kts 107°
2026-05-05 22:36 42.26256 30.02302 39047 ft 471 kts 107°
2026-05-05 22:36 42.24114 30.10615 39047 ft 471 kts 107°
2026-05-05 22:37 42.21962 30.18950 39047 ft 471 kts 107°
2026-05-05 22:37 42.19810 30.27263 39047 ft 471 kts 107°
2026-05-05 22:38 42.17641 30.35609 39047 ft 470 kts 107°
2026-05-05 22:38 42.15477 30.43914 39047 ft 469 kts 107°
2026-05-05 22:39 42.13299 30.52244 39047 ft 468 kts 107°
2026-05-05 22:39 42.11143 30.60460 39047 ft 468 kts 107°
2026-05-05 22:40 42.08968 30.68721 39047 ft 468 kts 107°
2026-05-05 22:40 42.06789 30.76970 39048 ft 467 kts 107°
2026-05-05 22:41 42.04603 30.85214 39052 ft 465 kts 107°
2026-05-05 22:41 42.02432 30.93378 39056 ft 465 kts 107°
2026-05-05 22:42 42.00258 31.01525 39057 ft 464 kts 107°
2026-05-05 22:42 41.98074 31.09698 39054 ft 468 kts 107°
2026-05-05 22:43 41.95874 31.17916 39049 ft 469 kts 107°
2026-05-05 22:43 41.93671 31.26105 39047 ft 466 kts 107°
2026-05-05 22:44 41.91476 31.34247 39047 ft 464 kts 107°
2026-05-05 22:44 41.89277 31.42375 39047 ft 464 kts 107°
2026-05-05 22:45 41.87075 31.50484 39047 ft 464 kts 107°
2026-05-05 22:45 41.84868 31.58585 39047 ft 463 kts 107°
2026-05-05 22:46 41.82657 31.66673 39047 ft 463 kts 108°
2026-05-05 22:46 41.80428 31.74767 39047 ft 463 kts 108°
2026-05-05 22:47 41.78208 31.82810 39047 ft 462 kts 108°
2026-05-05 22:47 41.75979 31.90868 39047 ft 462 kts 108°
2026-05-05 22:48 41.73743 31.98925 39040 ft 462 kts 108°
2026-05-05 22:48 41.71498 32.06986 39031 ft 462 kts 108°
2026-05-05 22:49 41.69234 32.15095 39022 ft 462 kts 108°
2026-05-05 22:49 41.66988 32.23122 39020 ft 462 kts 108°
2026-05-05 22:50 41.64739 32.31175 39020 ft 463 kts 108°
2026-05-05 22:50 41.62465 32.39272 39020 ft 464 kts 108°
2026-05-05 22:51 41.60189 32.47303 39020 ft 464 kts 108°
2026-05-05 22:51 41.57901 32.55374 39020 ft 464 kts 108°
2026-05-05 22:52 41.55616 32.63415 39020 ft 464 kts 108°
2026-05-05 22:52 41.53315 32.71484 39020 ft 465 kts 109°
2026-05-05 22:53 41.51020 32.79510 39020 ft 465 kts 109°
2026-05-05 22:53 41.48694 32.87617 39020 ft 465 kts 109°
2026-05-05 22:54 41.46374 32.95670 39005 ft 466 kts 110°
2026-05-05 22:54 41.43653 33.03460 38988 ft 467 kts 118°
2026-05-05 22:55 41.40461 33.10968 38971 ft 467 kts 117°
2026-05-05 22:55 41.37371 33.18574 38966 ft 467 kts 117°
2026-05-05 22:56 41.34275 33.26176 38966 ft 467 kts 117°
2026-05-05 22:56 41.31183 33.33731 38966 ft 467 kts 117°
2026-05-05 22:57 41.28095 33.41296 38966 ft 467 kts 116°
2026-05-05 22:57 41.25104 33.48912 38966 ft 466 kts 116°
2026-05-05 22:58 41.22095 33.56532 38966 ft 466 kts 116°
2026-05-05 22:58 41.19078 33.64137 38966 ft 467 kts 116°
2026-05-05 22:59 41.16046 33.71761 38966 ft 467 kts 117°
2026-05-05 22:59 41.13012 33.79366 38966 ft 467 kts 117°
2026-05-05 23:00 41.08468 33.90719 38972 ft 467 kts 117°
2026-05-05 23:00 41.05423 33.98301 38981 ft 468 kts 117°
2026-05-05 23:01 41.02374 34.05877 38989 ft 467 kts 117°
2026-05-05 23:01 40.99325 34.13429 38993 ft 467 kts 117°
2026-05-05 23:02 40.96268 34.20984 38993 ft 468 kts 117°
2026-05-05 23:02 40.93203 34.28540 38993 ft 468 kts 117°
2026-05-05 23:03 40.90131 34.36093 38993 ft 468 kts 117°
2026-05-05 23:03 40.87053 34.43641 38993 ft 468 kts 117°
2026-05-05 23:04 40.83968 34.51186 38993 ft 468 kts 117°
2026-05-05 23:04 40.80862 34.58765 38993 ft 468 kts 117°
2026-05-05 23:05 40.77766 34.66298 38996 ft 468 kts 118°
2026-05-05 23:05 40.74672 34.73810 39001 ft 468 kts 118°
2026-05-05 23:06 40.71493 34.81282 39006 ft 468 kts 120°
2026-05-05 23:06 40.68279 34.88706 39014 ft 467 kts 120°
2026-05-05 23:07 40.65080 34.96122 39019 ft 467 kts 120°
2026-05-05 23:07 40.61872 35.03534 39020 ft 468 kts 120°
2026-05-05 23:08 40.58655 35.10953 39020 ft 468 kts 120°
2026-05-05 23:08 40.55436 35.18362 39020 ft 467 kts 120°
2026-05-05 23:09 40.52211 35.25766 39020 ft 467 kts 120°
2026-05-05 23:09 40.48996 35.33129 39020 ft 467 kts 120°
2026-05-05 23:10 40.45755 35.40535 39020 ft 467 kts 120°
2026-05-05 23:10 40.42524 35.47900 39020 ft 467 kts 120°
2026-05-05 23:11 40.39264 35.55313 39020 ft 467 kts 120°
2026-05-05 23:11 40.36023 35.62664 39020 ft 467 kts 120°
2026-05-05 23:12 40.32771 35.70025 39020 ft 467 kts 121°
2026-05-05 23:12 40.29528 35.77346 39019 ft 467 kts 121°
2026-05-05 23:13 40.26247 35.84736 39008 ft 467 kts 121°
2026-05-05 23:13 40.22979 35.92079 39004 ft 467 kts 121°
2026-05-05 23:14 40.19706 35.99413 39007 ft 468 kts 121°
2026-05-05 23:14 40.16433 36.06733 39017 ft 467 kts 121°
2026-05-05 23:15 40.13155 36.14045 39020 ft 467 kts 121°
2026-05-05 23:15 40.09893 36.21304 39020 ft 467 kts 121°
2026-05-05 23:16 40.06599 36.28619 39020 ft 467 kts 121°
2026-05-05 23:16 40.03299 36.35927 39020 ft 467 kts 121°
2026-05-05 23:17 40.00009 36.43198 39020 ft 467 kts 121°